Regional Weather Roundup
Issued by NWS New Orleans/Baton Rouge, LA

Home | Current Version | Previous Version | Text Only | Print | Product List | Glossary On
Versions: 1 2 3 4 5 6 7 8 9 10 11 12 13 14 15 16 17 18 19 20 21 22 23 24 25 26 27 28 29 30 31 32 33 34 35 36 37 38 39 40 41 42 43 44 45 46 47 48 49 50
893
ASUS44 KLIX 192013
RWRLIX
NEW ORLEANS REGIONAL WEATHER ROUNDUP
NATIONAL WEATHER SERVICE NEW ORLEANS LA
200 PM CST THU JAN 19 2017

NOTE: "FAIR" INDICATES FEW OR NO CLOUDS BELOW 12,000 FEET WITH NO
      SIGNIFICANT WEATHER AND/OR OBSTRUCTIONS TO VISIBILITY.
      SKY/WX - SKY CONDITION AND SIGNIFICANT WEATHER.
      TMP - AIR TEMPERATURE.     DP    - DEWPOINT TEMPERATURE.
      RH  - RELATIVE HUMIDITY.   PRES  - PRESSURE.
      HI  - HEAT INDEX.          WCI   - WIND CHILL INDEX.

*  THESE STATIONS ARE NOT NWS OR FAA STATIONS AND ARE NOT UNDER
   NWS QUALITY CONTROL.

LAZ038-040-048-061>063-065>067-069-192100-
SOUTHEAST LOUISIANA

CITY           SKY/WX    TMP DP  RH WIND       PRES   REMARKS
N.O. AUDUBON   NOT AVBL
N.O. INTL ARPT RAIN      71  68  90 S13G24    29.81F VSB 1
N.O. LAKEFRONT CLOUDY    73  69  87 S18       29.81F
N.O. DOWNTOWN* LGT RAIN  73  68  84 S10G20    29.82F
RESERVE*       HVY RAIN  69  67  94 W10G17    29.83F
SLIDELL        CLOUDY    74  68  81 S7        29.80F
BATON ROUGE    LGT RAIN  66  63  90 S12       29.80F
BOOTHVILLE     PTSUNNY   72  68  87 S15       29.85F
BELLE CHASSE   CLOUDY    75  69  81 S16G30    29.81F
BOGALUSA*      CLOUDY    66  63  89 CALM      29.85F
GALLIANO*      CLOUDY    75  68  79 S18       29.82F
NEW ROADS*     DRIZZLE   65  64  97 S8        29.80R
GONZALES*      LGT RAIN  66  65  96 CALM      29.81F
HAMMOND*       HVY RAIN  68  63  83 W5        29.82F
HOUMA*         NOT AVBL
PORT FOURCHON* MOCLDY    73  70  88 S14       29.82F

$$

MSZ070-080>082-192100-
SOUTHERN MISSISSIPPI

CITY           SKY/WX    TMP DP  RH WIND       PRES   REMARKS
MCCOMB         LGT RAIN  64  62  93 SE5       29.81F
GULFPORT       CLOUDY    70  68  93 S9        29.84F
BILOXI         CLOUDY    70  66  88 S13       29.84F FOG
PASCAGOULA     CLOUDY    73  68  84 S14G23    29.86F
STENNIS ARPT*  CLOUDY    72  66  83 S13G22    29.83F

$$

COASTAL OBSERVATIONS
LAKE AND NEARSHORE STATIONS

STATION/POSITION TIME  TEMP    WIND        PRES    WAVE
                       AIR SEA DIR/SP/G            HT/PER
                 (UTC) (F)     (DEG/KT/KT) (MB)    (FT/S)
PASCAGOULA       1942   71     170/  7/ 11 1011.3
WAVELAND YACHT   1942   69 63  180/  8/ 11 1010.5
GRAND ISLE       1942   72 67  180/  6/ 11 1010.6
SOUTHWEST PASS   1948          170/ 13/ 14   N/A
NEW CANAL        1942   74 58  210/  9/ 17 1008.8
SHELL BEACH      1942   74 69  190/ 23/ 26 1009.9

OFFSHORE STATIONS

STATION/POSITION TIME  TEMP    WIND        PRES    WAVE
                       AIR SEA DIR/SP/G            HT/PER
                 (UTC) (F)     (DEG/KT/KT) (MB)    (FT/S)

$$





USA.gov is the U.S. government's official web portal to all federal, state and local government web resources and services.